Location: Pulvis Stellarum Observatory
(41.6962°N, 71.4263°W)
Time: 10:21:44
(UTC-04:00)

Cosmos 1758 - Visible Passes

Search period start: 28 July 2014 00:00
Search period end: 07 August 2014 00:00
Orbit: 550 x 576 km, 82.5° (Epoch: 27 July)

Date Brightness Start Highest point End Pass type
(mag) Time Alt. Az. Time Alt. Az. Time Alt. Az.
28 Jul 3.2 03:24:19 55° SSW 03:25:08 81° W 03:29:10 10° N visible
29 Jul 3.3 03:24:28 57° SW 03:25:00 65° W 03:29:00 10° N visible
30 Jul 6.1 01:48:34 11° E 01:48:41 11° E 01:49:49 10° ENE visible
30 Jul 3.5 03:24:35 51° W 03:24:52 52° W 03:28:49 10° N visible
31 Jul 5.9 01:48:40 14° E 01:48:40 14° E 01:50:28 10° NE visible
31 Jul 3.8 03:24:41 42° W 03:24:44 42° WNW 03:28:35 10° N visible
01 Aug 5.7 01:48:45 16° ENE 01:48:45 16° ENE 01:50:47 10° NE visible
01 Aug 4.2 03:24:46 34° WNW 03:24:46 34° WNW 03:28:19 10° N visible
02 Aug 5.6 01:48:49 19° ENE 01:48:49 19° ENE 01:50:58 10° NE visible
02 Aug 4.6 03:24:50 28° WNW 03:24:50 28° WNW 03:28:01 10° NNW visible
03 Aug 5.5 01:48:52 21° ENE 01:48:52 21° ENE 01:51:03 10° NE visible
03 Aug 4.9 03:24:52 23° WNW 03:24:52 23° WNW 03:27:41 10° NNW visible
04 Aug 5.4 01:48:54 24° ENE 01:48:54 24° ENE 01:51:06 10° NNE visible
04 Aug 5.2 03:24:54 19° WNW 03:24:54 19° WNW 03:27:17 10° NNW visible
05 Aug 5.3 01:48:55 26° NE 01:48:55 26° NE 01:51:05 10° NNE visible
05 Aug 5.4 03:24:55 16° WNW 03:24:55 16° WNW 03:26:47 10° NNW visible
06 Aug 5.3 01:48:55 27° NE 01:48:55 27° NE 01:51:02 10° NNE visible
06 Aug 5.7 03:24:55 13° WNW 03:24:55 13° WNW 03:26:11 10° NW visible
